Welcome to the New NWS' Forecast!
Most changes are behind the scenes, but click here for differences you might notice.
Latest weather observations around

Chicago, Chicago-O'Hare International Airport (KORD)

Using English Units (Switch to International System of Units)
Date/ Time (CST) Wind (mph) Vis. (mi) Weather Sky Cond. Temp (°F) Rel. Humidity Wind Chill (°F) Heat Index (°F) Pressure Precip. (in)
Air Dwpt 6 hour Altimeter (inHg) Sea level (inHg) 1 hr 3 hr 6 hr
Max Min
Jan 21 09:51 Calm 0.5 Fog OVC003 40 39     97%     29.97 29.98      
Jan 21 09:28 SSE 5 0.5 Fog OVC003 40 38     93% 37   29.97        
Jan 21 08:51 Calm 4 Fog/Mist OVC004 40 37     89%     29.97 29.98      
Jan 21 08:01 S 5 4 Fog/Mist BKN005 OVC060 39 36     89% 36   29.96        
Jan 21 07:51 S 6 4 Fog/Mist SCT005 BKN038 OVC060 39 37     93% 35   29.96 29.97      
Jan 21 07:34 SSE 7 4 Fog/Mist FEW005 BKN038 OVC060 39 36     89% 34   29.95        
Jan 21 06:51 SSE 5 5 Fog/Mist BKN040 OVC060 37 35     92% 33   29.96 29.97      
Jan 21 05:51 S 6 5 Fog/Mist SCT037 OVC060 38 35     89% 33   29.97 29.98      
Jan 21 04:51 SSE 3 7 Mostly Cloudy BKN033 BKN055 36 34     92% 33   29.97 29.98      
Jan 21 03:51 Calm 9 Cloudy SCT036 OVC048 38 34     85%     29.97 29.98      
Jan 21 02:51 SE 5 8 Cloudy BKN033 OVC044 38 35     89% 34   29.98 29.99      
Jan 21 02:21 S 5 8 Cloudy OVC030 39 35     86% 36   29.99        
Jan 21 01:51 Calm 8 Cloudy OVC029 39 35     86%     29.99 30      
Jan 21 00:51 S 3 7 Cloudy OVC028 39 35     86% 37   29.97 29.98      
Jan 20 23:51 SSE 3 6 Fog/Mist OVC027 38 35     89% 36   29.98 29.99      
Jan 20 23:12 S 6 7 Cloudy OVC026 39 35     86% 35   29.99        
Jan 20 22:51 SSW 6 8 Cloudy OVC024 40 35     83% 36   29.99 30      
Jan 20 20:51 S 7 8 Cloudy OVC017 40 35     83% 35   29.97 29.98      
Jan 20 19:51 SW 8 9 Cloudy OVC018 41 36     82% 36   29.99 30      
Jan 20 18:51 SSW 11 9 Cloudy OVC021 42 36     79% 36   29.98 29.99      
Jan 20 17:51 S 5 10 Mostly Cloudy BKN021 39 33     79% 36   29.96 29.98      
Notice The following observation data may not be complete
Jan 20 17:36   10 Mostly Cloudy BKN021          %              
Jan 20 16:51 SW 5 10 Partly Cloudy FEW020 SCT250 42 33     70% 39   29.95 29.96      
Jan 20 15:51 SW 9 10 Mostly Cloudy BKN250 45 33     63% 40   29.94 29.95      
Jan 20 14:51 SW 8 10 Partly Cloudy SCT250 45 32     60% 41   29.91 29.92      
Jan 20 13:51 SW 11 10 Mostly Cloudy FEW200 BKN250 45 32     60% 39   29.9 29.92      
Jan 20 12:51 WSW 9 10 Mostly Cloudy FEW150 FEW210 BKN250 44 31     60% 39   29.91 29.92      
Jan 20 11:51 SW 8 10 Mostly Cloudy FEW150 FEW210 BKN250 42 30     62% 37   29.92 29.93      
Jan 20 10:51 WSW 8 10 Mostly Cloudy FEW150 SCT210 BKN250 41 29     62% 36   29.93 29.94      
Jan 20 09:51 SW 8 10 Mostly Cloudy FEW150 BKN250 39 28     64% 33   29.92 29.93      
Jan 20 08:51 SW 8 10 Mostly Cloudy BKN250 36 28     73% 30   29.91 29.93      
Jan 20 07:51 SW 8 10 Mostly Cloudy BKN250 33 26     75% 26   29.89 29.9      
Jan 20 06:51 SW 6 10 Mostly Cloudy BKN250 33 26     75% 28   29.87 29.88      
Jan 20 05:51 WSW 8 10 Mostly Cloudy BKN250 35 26     69% 29   29.85 29.86      
Jan 20 04:51 SW 8 10 Cloudy OVC240 36 27     70% 30   29.83 29.85      
Jan 20 03:51 WSW 10 10 Cloudy BKN200 OVC250 36 27     70% 29   29.82 29.84      
Jan 20 02:51 SW 11 10 Mostly Cloudy BKN250 37 27     67% 29   29.81 29.82      
Jan 20 01:51 SW 11 10 Partly Cloudy SCT250 37 27     67% 29   29.8 29.81      
Jan 20 00:51 SW 14 10 Mostly Clear FEW250 38 27     64% 30   29.78 29.79      
Jan 19 23:51 SW 15 10 Mostly Cloudy BKN240 39 28     64% 31   29.77 29.79      
Jan 19 22:51 SW 17 10 Cloudy OVC240 39 28     64% 30   29.76 29.78      
Jan 19 21:51 SW 20 10 Cloudy and Windy OVC250 40 28     62% 30   29.74 29.76      
Jan 19 20:51 SW 20 10 Cloudy and Windy OVC250 40 28     62% 30   29.72 29.74      
Jan 19 19:51 SSW 20 10 Cloudy and Windy OVC250 40 28     62% 30   29.71 29.73      
Jan 19 18:51 SSW 20 10 Mostly Cloudy and Windy FEW150 BKN250 40 28     62% 30   29.72 29.74      
Jan 19 17:51 SSW 18 10 Mostly Cloudy BKN250 39 28     64% 30   29.73 29.74      
Jan 19 16:51 SSW 17 10 Mostly Cloudy BKN250 38 27     64% 29   29.74 29.76      
Jan 19 15:51 SSW 22 10 Mostly Cloudy and Windy BKN250 39 25     57% 29   29.76 29.78      
Jan 19 14:51 SSW 21 10 Mostly Cloudy and Windy BKN250 39 24     55% 29   29.76 29.77      
Jan 19 13:51 SSW 18 10 Mostly Cloudy BKN250 39 24     55% 30   29.76 29.78      
Jan 19 12:51 SW 15 10 Mostly Cloudy BKN250 38 22     52% 29   29.79 29.81      
Jan 19 11:51 SSW 18 10 Cloudy OVC250 36 21     54% 26   29.83 29.85      
Jan 19 10:51 SW 17 10 Mostly Cloudy BKN250 34 20     56% 23   29.88 29.9      
Jan 19 09:51 SW 16 10 Mostly Cloudy BKN250 33 19     56% 23   29.89 29.91      
Jan 19 08:51 SSW 16 10 Mostly Cloudy BKN250 31 19     61% 20   29.89 29.91      
Jan 19 07:51 SW 16 10 Partly Cloudy SCT250 29 18     63% 17   29.89 29.91      
Jan 19 06:51 SW 16 10 Partly Cloudy FEW180 SCT250 29 19     66% 17   29.89 29.91      
Jan 19 05:51 SW 16 10 Partly Cloudy SCT250 29 19     66% 17   29.89 29.91      
Jan 19 04:51 SW 15 10 Partly Cloudy SCT250 29 19     66% 18   29.9 29.93      
Jan 19 03:51 SW 11 10 Mostly Clear FEW250 28 18     65% 18   29.92 29.94      
Jan 19 02:51 SW 13 10 Mostly Clear FEW250 29 18     63% 19   29.93 29.95      
Jan 19 01:51 SW 13 10 Mostly Clear FEW250 30 18     60% 20   29.93 29.95      
Jan 19 00:51 SW 10 10 Mostly Clear FEW250 30 18     60% 21   29.93 29.96      
Jan 18 23:51 SW 9 10 Mostly Clear FEW250 29 19     66% 20   29.95 29.97      
Jan 18 22:51 SSW 13 10 Partly Cloudy SCT250 30 19     63% 20   29.97 29.99      
Jan 18 21:51 SW 10 10 Partly Cloudy SCT250 31 20     63% 22   29.98 30.01      
Jan 18 19:51 SW 14 10 Mostly Clear FEW250 31 20     63% 21   29.97 29.99      
Jan 18 18:51 SW 14 10 Mostly Clear FEW250 31 20     63% 21   30 30.02      
Jan 18 17:51 SSW 16 10 Mostly Clear FEW250 31 20     63% 20   30 30.03      
Jan 18 16:51 SW 18 10 Mostly Clear FEW250 31 19     61% 19   29.98 30.01      
Jan 18 15:51 SW 20 10 Clear and Windy CLR 32 17     54% 20   29.97 30      
Jan 18 14:51 SW 16 10 Mostly Clear FEW250 32 17     54% 21   29.98 30.01      
Jan 18 13:51 WSW 16 10 Mostly Clear FEW250 32 17     54% 21   30 30.03      
Jan 18 12:51 SW 21 10 Mostly Clear and Windy FEW250 29 16     58% 16   30.03 30.05      
Jan 18 11:51 WSW 16 10 Partly Cloudy SCT250 26 13     57% 14   30.08 30.11      
Jun 11 22:51 SSW 17 10 Clear CLR 84 58     41%   83 29.91 29.89      
Jun 11 14:51 SSW 13 10 Clear   91 61     37%   91 29.91 29.89      
Jun 10 09:51 SW 13 10 Mostly Cloudy BKN250 77 57     50%   77 29.87 29.86      
Jun 09 22:51 E 6 10 Mostly Clear FEW075 67 55     66%     29.83 29.81      
Jun 09 15:51 ENE 13 10 Clear   83 57     41%   82 29.76 29.75      
Jun 08 07:51 SW 5 10 Clear   67 46     47%     30.05 30.03